User: anonymous   Login
Location: Wawayanda State Park
(41.1833°N, 74.4333°W)
Time: 22:23:04
(UTC-04:00)
Language:

Landsat 7 - Orbit

View from above orbital plane
View from above orbital plane
View from above satellite
View from above satellite

Ground track
Ground track

The orbit data is extracted from the following two-line orbital elements,

1 25682U 99020A   15216.20540958  .00000262  00000-0  68245-4 0  9990
2 25682 098.2146 285.4892 0000809 084.9712 275.1574 14.57106359867138
Epoch (UTC): 04 August 2015 04:55:47
Eccentricity: 0.0000809
inclination: 98.2146°
perigee height: 702 km
apogee height: 703 km
right ascension of ascending node: 285.4892°
argument of perigee: 84.9712°
revolutions per day: 14.57106359
mean anomaly at epoch: 275.1574°
orbit number at epoch: 86713

The dashed part of the orbit path shows where the satellite is in the earth's shadow,  

DLR